Find Starlink 32821

NORAD ID: 63078 Int'l Des: 2025-037 Owner: SPXS Country: US Constellation: starlink operational
LEOCIRCULAR

当前视图

正在加载3D地球...

About Starlink 32821

Starlink 32821 (NORAD 63078) is a starlink constellation satellite (v2 mini) launched Feb 23, 2025 by SPXS of US. It operates in LEO, CIRCULAR orbit with a mass of 730.00 kg.

关于 Starlink 32821

正在加载描述...

即将过境

Passes for default location (London). Set your location on the main map for personalized predictions.

高度历史

Loading altitude history...

两行轨道根数

1 63078U 25037B 26167.18560831 -.00002484 00000-0 -20043-3 0 9997
2 63078 70.0020 106.1981 0002990 267.5601 92.5216 14.98335174 73334
Epoch: Jun 16, 2026 • Age: 17 hours

当前状态

高度 595.5 km
速度 7.56 km/s
星下点 -69.76°S, 154.77°E
发射日期 Feb 23, 2025
运行时间 1.3 years
类型 internet

技术详情

分类 Payload
质量 730.00 kg
干质量 700.00 kg
总质量 730.00 kg
长度 0.30 m
直径 4.10 m
跨度 29.00 m
形状 Box + pan
制造商 SPXS
平台类型 Starlink V2M
阶段状态 In Orbit
所有者/国家 SPXS/US

Most Searched